AWQ204 WIII-WMKK

Flight info

Callsign AWQ204
Flight time 1h 40m
Altitude 34000
Route DOLTA A585 PKU/N0469F350 N633 SALAX SALAX1G
Aircraft A320/M-SDE3FGHIRWY/LB1

Departure

Time 2026-05-06 13:09
Airport Soekarno-Hatta International Airport (WIII)

Arrival

Time 2026-05-06 14:49
Airport Kuala Lumpur International Airport (WMKK)
Time Latitude Longitude Altitude Speed Heading
2026-05-06 12:23 -6.12000 106.65543 47 ft 0 kts 192°
2026-05-06 12:51 -6.11999 106.65543 48 ft 1 kts 193°
2026-05-06 12:52 -6.11985 106.65546 48 ft 2 kts 192°
2026-05-06 12:52 -6.11970 106.65550 48 ft 2 kts 193°
2026-05-06 12:52 -6.11955 106.65552 48 ft 2 kts 192°
2026-05-06 12:52 -6.11941 106.65556 48 ft 2 kts 193°
2026-05-06 12:53 -6.11926 106.65559 48 ft 2 kts 192°
2026-05-06 12:53 -6.11911 106.65562 48 ft 2 kts 193°
2026-05-06 12:53 -6.11898 106.65570 48 ft 2 kts 230°
2026-05-06 12:53 -6.11893 106.65578 48 ft 1 kts 247°
2026-05-06 12:54 -6.11891 106.65584 48 ft 0 kts 249°
2026-05-06 12:55 -6.11893 106.65576 48 ft 3 kts 249°
2026-05-06 12:56 -6.11916 106.65521 48 ft 12 kts 248°
2026-05-06 12:56 -6.11950 106.65436 48 ft 13 kts 248°
2026-05-06 12:56 -6.11942 106.65346 48 ft 14 kts 305°
2026-05-06 12:56 -6.11883 106.65282 48 ft 0 kts 329°
2026-05-06 12:57 -6.11879 106.65273 47 ft 4 kts 288°
2026-05-06 12:57 -6.11821 106.65231 48 ft 14 kts 339°
2026-05-06 12:57 -6.11791 106.65150 48 ft 15 kts 249°
2026-05-06 12:57 -6.11839 106.65028 47 ft 20 kts 248°
2026-05-06 12:58 -6.11891 106.64898 48 ft 20 kts 248°
2026-05-06 12:58 -6.11943 106.64768 48 ft 19 kts 248°
2026-05-06 12:58 -6.11996 106.64635 48 ft 20 kts 248°
2026-05-06 12:58 -6.12050 106.64499 47 ft 20 kts 248°
2026-05-06 12:59 -6.12103 106.64365 48 ft 20 kts 248°
2026-05-06 12:59 -6.12157 106.64230 48 ft 21 kts 248°
2026-05-06 12:59 -6.12211 106.64095 48 ft 20 kts 248°
2026-05-06 12:59 -6.12250 106.63996 47 ft 10 kts 248°
2026-05-06 13:00 -6.12259 106.63967 48 ft 0 kts 259°
2026-05-06 13:02 -6.12259 106.63966 48 ft 0 kts 259°
2026-05-06 13:03 -6.12260 106.63952 47 ft 4 kts 273°
2026-05-06 13:03 -6.12243 106.63909 48 ft 8 kts 311°
2026-05-06 13:03 -6.12217 106.63891 48 ft 0 kts 334°
2026-05-06 13:06 -6.12197 106.63885 48 ft 8 kts 351°
2026-05-06 13:06 -6.12131 106.63901 48 ft 10 kts 354°
2026-05-06 13:06 -6.12096 106.63899 48 ft 4 kts 49°
2026-05-06 13:06 -6.12085 106.63924 48 ft 0 kts 68°
2026-05-06 13:08 -6.12003 106.64129 48 ft 66 kts 68°
2026-05-06 13:08 -6.11749 106.64768 48 ft 127 kts 68°
2026-05-06 13:08 -6.11353 106.65759 151 ft 166 kts 67°
2026-05-06 13:09 -6.10934 106.66826 723 ft 166 kts 68°
2026-05-06 13:09 -6.10497 106.67920 1349 ft 168 kts 60°
2026-05-06 13:09 -6.09643 106.68655 1853 ft 170 kts 14°
2026-05-06 13:09 -6.08413 106.68628 2142 ft 183 kts 354°
2026-05-06 13:10 -6.07122 106.68760 2402 ft 196 kts 27°
2026-05-06 13:10 -6.05948 106.69559 2696 ft 210 kts 37°
2026-05-06 13:10 -6.04722 106.70496 2973 ft 229 kts 37°
2026-05-06 13:10 -6.03405 106.71498 3363 ft 245 kts 37°
2026-05-06 13:11 -6.01980 106.72572 3727 ft 262 kts 37°
2026-05-06 13:11 -6.00479 106.73673 4334 ft 269 kts 32°
2026-05-06 13:11 -5.98726 106.74313 5022 ft 273 kts
2026-05-06 13:11 -5.96827 106.74082 5747 ft 276 kts 339°
2026-05-06 13:12 -5.95235 106.73008 6448 ft 281 kts 311°
2026-05-06 13:12 -5.94227 106.71321 7188 ft 285 kts 295°
2026-05-06 13:12 -5.93418 106.69485 7929 ft 288 kts 294°
2026-05-06 13:12 -5.92619 106.67632 8658 ft 291 kts 294°
2026-05-06 13:13 -5.91795 106.65756 9394 ft 294 kts 294°
2026-05-06 13:13 -5.90910 106.63899 10107 ft 297 kts 303°
2026-05-06 13:13 -5.89544 106.62314 10684 ft 304 kts 317°
2026-05-06 13:13 -5.87933 106.60834 11011 ft 321 kts 319°
2026-05-06 13:14 -5.86225 106.59312 11308 ft 338 kts 319°
2026-05-06 13:14 -5.84418 106.57700 11605 ft 353 kts 319°
2026-05-06 13:14 -5.82565 106.56033 12113 ft 360 kts 318°
2026-05-06 13:14 -5.80692 106.54340 12760 ft 362 kts 318°
2026-05-06 13:15 -5.78812 106.52636 13378 ft 365 kts 318°
2026-05-06 13:15 -5.76926 106.50924 13968 ft 368 kts 318°
2026-05-06 13:15 -5.75007 106.49180 14555 ft 372 kts 318°
2026-05-06 13:15 -5.73086 106.47434 15128 ft 375 kts 318°
2026-05-06 13:16 -5.71124 106.45649 15698 ft 378 kts 318°
2026-05-06 13:16 -5.69184 106.43885 16245 ft 381 kts 318°
2026-05-06 13:16 -5.67202 106.42082 16789 ft 384 kts 318°
2026-05-06 13:16 -5.65194 106.40256 17325 ft 387 kts 318°
2026-05-06 13:17 -5.63188 106.38433 17841 ft 390 kts 318°
2026-05-06 13:17 -5.61150 106.36579 18345 ft 393 kts 319°
2026-05-06 13:17 -5.59112 106.34727 18832 ft 396 kts 319°
2026-05-06 13:17 -5.57082 106.32881 19298 ft 399 kts 319°
2026-05-06 13:18 -5.55017 106.31004 19759 ft 401 kts 319°
2026-05-06 13:18 -5.52939 106.29115 20211 ft 404 kts 319°
2026-05-06 13:18 -5.50844 106.27211 20654 ft 407 kts 319°
2026-05-06 13:18 -5.48718 106.25279 21092 ft 409 kts 319°
2026-05-06 13:19 -5.46615 106.23368 21513 ft 412 kts 319°
2026-05-06 13:19 -5.44475 106.21424 21931 ft 414 kts 319°
2026-05-06 13:19 -5.42322 106.19469 22334 ft 417 kts 319°
2026-05-06 13:19 -5.40157 106.17501 22728 ft 420 kts 319°
2026-05-06 13:20 -5.37988 106.15532 22939 ft 422 kts 319°
2026-05-06 13:20 -5.35792 106.13535 22939 ft 421 kts 319°
2026-05-06 13:20 -5.33637 106.11570 22937 ft 421 kts 319°
2026-05-06 13:20 -5.31445 106.09574 22936 ft 421 kts 319°
2026-05-06 13:21 -5.29282 106.07606 22936 ft 421 kts 319°
2026-05-06 13:21 -5.27097 106.05621 22936 ft 421 kts 319°
2026-05-06 13:21 -5.24943 106.03666 22936 ft 421 kts 319°
2026-05-06 13:21 -5.22758 106.01682 22936 ft 421 kts 319°
2026-05-06 13:22 -5.20594 105.99719 22936 ft 421 kts 319°
2026-05-06 13:22 -5.18405 105.97732 22936 ft 421 kts 319°
2026-05-06 13:22 -5.16220 105.95750 22936 ft 421 kts 319°
2026-05-06 13:22 -5.14005 105.93844 22935 ft 420 kts 322°
2026-05-06 13:23 -5.11648 105.92091 22939 ft 421 kts 327°
2026-05-06 13:23 -5.09150 105.90512 23176 ft 425 kts 330°
2026-05-06 13:23 -5.06591 105.89040 23644 ft 424 kts 331°
2026-05-06 13:23 -5.04014 105.87577 24041 ft 426 kts 332°
2026-05-06 13:24 -5.01403 105.86097 24395 ft 428 kts 332°
2026-05-06 13:24 -4.98819 105.84631 24737 ft 431 kts 332°
2026-05-06 13:24 -4.96197 105.83141 25078 ft 433 kts 332°
2026-05-06 13:24 -4.93546 105.81633 25413 ft 435 kts 332°
2026-05-06 13:25 -4.90918 105.80137 25735 ft 437 kts 332°
2026-05-06 13:25 -4.88251 105.78619 26052 ft 439 kts 332°
2026-05-06 13:25 -4.85578 105.77097 26365 ft 441 kts 332°
2026-05-06 13:25 -4.82880 105.75562 26667 ft 443 kts 332°
2026-05-06 13:26 -4.80206 105.74040 26956 ft 445 kts 332°
2026-05-06 13:26 -4.77510 105.72505 27241 ft 447 kts 332°
2026-05-06 13:26 -4.74791 105.70958 27520 ft 449 kts 332°
2026-05-06 13:26 -4.72027 105.69384 27794 ft 451 kts 332°
2026-05-06 13:27 -4.69295 105.67829 28057 ft 453 kts 332°
2026-05-06 13:27 -4.66559 105.66272 28313 ft 455 kts 332°
2026-05-06 13:27 -4.63762 105.64681 28565 ft 456 kts 332°
2026-05-06 13:27 -4.61013 105.63117 28803 ft 458 kts 332°
2026-05-06 13:28 -4.58219 105.61527 29034 ft 460 kts 332°
2026-05-06 13:28 -4.55413 105.59931 29255 ft 461 kts 332°
2026-05-06 13:28 -4.52631 105.58349 29468 ft 462 kts 332°
2026-05-06 13:28 -4.49822 105.56751 29673 ft 464 kts 332°
2026-05-06 13:29 -4.47003 105.55148 29924 ft 464 kts 332°
2026-05-06 13:29 -4.44210 105.53560 30213 ft 463 kts 332°
2026-05-06 13:29 -4.41397 105.51959 30502 ft 462 kts 332°
2026-05-06 13:29 -4.38603 105.50371 30774 ft 461 kts 332°
2026-05-06 13:30 -4.35820 105.48789 31038 ft 461 kts 332°
2026-05-06 13:30 -4.33014 105.47194 31301 ft 460 kts 332°
2026-05-06 13:30 -4.30203 105.45596 31562 ft 460 kts 332°
2026-05-06 13:30 -4.27413 105.44010 31818 ft 459 kts 332°
2026-05-06 13:31 -4.24632 105.42430 32069 ft 459 kts 332°
2026-05-06 13:31 -4.21884 105.40868 32292 ft 459 kts 332°
2026-05-06 13:31 -4.19067 105.39268 32484 ft 460 kts 332°
2026-05-06 13:31 -4.16281 105.37685 32659 ft 461 kts 332°
2026-05-06 13:32 -4.13516 105.36115 32832 ft 461 kts 332°
2026-05-06 13:32 -4.10717 105.34525 33003 ft 462 kts 332°
2026-05-06 13:32 -4.07895 105.32922 33165 ft 463 kts 332°
2026-05-06 13:32 -4.05114 105.31343 33319 ft 463 kts 332°
2026-05-06 13:33 -4.02287 105.29737 33472 ft 464 kts 332°
2026-05-06 13:33 -3.99491 105.28150 33617 ft 464 kts 332°
2026-05-06 13:33 -3.96681 105.26555 33758 ft 465 kts 332°
2026-05-06 13:33 -3.93860 105.24953 33895 ft 465 kts 332°
2026-05-06 13:34 -3.91017 105.23340 33932 ft 466 kts 332°
2026-05-06 13:34 -3.85364 105.20155 33938 ft 467 kts 332°
2026-05-06 13:35 -3.79681 105.16957 33939 ft 467 kts 332°
2026-05-06 13:35 -3.74044 105.13784 33939 ft 467 kts 332°
2026-05-06 13:36 -3.68388 105.10601 33939 ft 467 kts 332°
2026-05-06 13:36 -3.62708 105.07404 33939 ft 467 kts 332°
2026-05-06 13:37 -3.57015 105.04201 33939 ft 467 kts 332°
2026-05-06 13:37 -3.51360 105.01019 33939 ft 467 kts 332°
2026-05-06 13:38 -3.45694 104.97831 33939 ft 467 kts 332°
2026-05-06 13:38 -3.40030 104.94645 33939 ft 467 kts 332°
2026-05-06 13:39 -3.34350 104.91451 33939 ft 467 kts 332°
2026-05-06 13:39 -3.28676 104.88260 33939 ft 467 kts 332°
2026-05-06 13:40 -3.23013 104.85075 33939 ft 467 kts 332°
2026-05-06 13:40 -3.17363 104.81899 33939 ft 467 kts 332°
2026-05-06 13:41 -3.11713 104.78722 33939 ft 467 kts 332°
2026-05-06 13:41 -3.06056 104.75543 33939 ft 467 kts 332°
2026-05-06 13:42 -3.00388 104.72358 33939 ft 467 kts 332°
2026-05-06 13:42 -2.94725 104.69175 33939 ft 467 kts 332°
2026-05-06 13:43 -2.89229 104.65696 33939 ft 468 kts 326°
2026-05-06 13:43 -2.84112 104.61613 33939 ft 469 kts 319°
2026-05-06 13:44 -2.79394 104.57101 33939 ft 470 kts 317°
2026-05-06 13:44 -2.74704 104.52508 33939 ft 470 kts 317°
2026-05-06 13:45 -2.70043 104.47952 33939 ft 470 kts 317°
2026-05-06 13:45 -2.63021 104.41102 33939 ft 470 kts 317°
2026-05-06 13:46 -2.58311 104.36511 33940 ft 475 kts 317°
2026-05-06 13:46 -2.53535 104.31857 33940 ft 481 kts 317°
2026-05-06 13:47 -2.48699 104.27143 33939 ft 484 kts 317°
2026-05-06 13:47 -2.43886 104.22452 33939 ft 484 kts 317°
2026-05-06 13:48 -2.39045 104.17735 33939 ft 484 kts 317°
2026-05-06 13:48 -2.34203 104.13017 33939 ft 484 kts 317°
2026-05-06 13:49 -2.29377 104.08317 33939 ft 484 kts 317°
2026-05-06 13:49 -2.24537 104.03603 33939 ft 484 kts 317°
2026-05-06 13:50 -2.19718 103.98909 33939 ft 484 kts 317°
2026-05-06 13:50 -2.14864 103.94181 33939 ft 484 kts 317°
2026-05-06 13:51 -2.10032 103.89476 33939 ft 484 kts 317°
2026-05-06 13:51 -2.05226 103.84797 33939 ft 484 kts 317°
2026-05-06 13:52 -2.00360 103.80060 33939 ft 484 kts 317°
2026-05-06 13:52 -1.95513 103.75340 33939 ft 484 kts 317°
2026-05-06 13:53 -1.90706 103.70661 33939 ft 484 kts 317°
2026-05-06 13:53 -1.85856 103.65941 33939 ft 484 kts 317°
2026-05-06 13:54 -1.81026 103.61241 33939 ft 484 kts 317°
2026-05-06 13:54 -1.76201 103.56545 33939 ft 484 kts 317°
2026-05-06 13:55 -1.71356 103.51830 33939 ft 484 kts 317°
2026-05-06 13:55 -1.66533 103.47137 33939 ft 484 kts 317°
2026-05-06 13:56 -1.61676 103.42412 33939 ft 484 kts 317°
2026-05-06 13:56 -1.56855 103.37721 33939 ft 484 kts 317°
2026-05-06 13:57 -1.52020 103.33018 33938 ft 484 kts 317°
2026-05-06 13:57 -1.47137 103.28267 33939 ft 484 kts 317°
2026-05-06 13:58 -1.42300 103.23562 33939 ft 484 kts 317°
2026-05-06 13:58 -1.37476 103.18870 33939 ft 484 kts 317°
2026-05-06 13:59 -1.32634 103.14161 33939 ft 484 kts 317°
2026-05-06 13:59 -1.27781 103.09441 33939 ft 484 kts 317°
2026-05-06 14:00 -1.22942 103.04734 33939 ft 484 kts 317°
2026-05-06 14:00 -1.18088 103.00014 33939 ft 484 kts 317°
2026-05-06 14:01 -1.13253 102.95311 33939 ft 484 kts 317°
2026-05-06 14:01 -1.08432 102.90623 33939 ft 484 kts 317°
2026-05-06 14:02 -1.03565 102.85895 33939 ft 484 kts 317°
2026-05-06 14:02 -0.98725 102.81202 33939 ft 484 kts 317°
2026-05-06 14:03 -0.93909 102.76530 33939 ft 484 kts 317°
2026-05-06 14:03 -0.89051 102.71818 33939 ft 484 kts 317°
2026-05-06 14:04 -0.84218 102.67129 33939 ft 484 kts 317°
2026-05-06 14:04 -0.79357 102.62413 33939 ft 484 kts 317°
2026-05-06 14:05 -0.74540 102.57741 33939 ft 484 kts 317°
2026-05-06 14:05 -0.69692 102.53038 33939 ft 484 kts 317°
2026-05-06 14:06 -0.64852 102.48343 33939 ft 484 kts 317°
2026-05-06 14:06 -0.59985 102.43621 33939 ft 484 kts 317°
2026-05-06 14:07 -0.55173 102.38954 33939 ft 484 kts 317°
2026-05-06 14:07 -0.50320 102.34246 33938 ft 484 kts 317°
2026-05-06 14:08 -0.45476 102.29548 33939 ft 484 kts 317°
2026-05-06 14:08 -0.40620 102.24838 33939 ft 484 kts 317°
2026-05-06 14:09 -0.35793 102.20157 33939 ft 484 kts 317°
2026-05-06 14:09 -0.30940 102.15450 33939 ft 484 kts 317°
2026-05-06 14:10 -0.26093 102.10751 33939 ft 484 kts 317°
2026-05-06 14:10 -0.21263 102.06066 33939 ft 484 kts 317°
2026-05-06 14:11 -0.16391 102.01341 33939 ft 484 kts 317°
2026-05-06 14:11 -0.11570 101.96665 33939 ft 484 kts 317°
2026-05-06 14:12 -0.06727 101.91969 33939 ft 484 kts 317°
2026-05-06 14:12 -0.01882 101.87270 33939 ft 484 kts 317°
2026-05-06 14:13 0.02977 101.82556 33939 ft 484 kts 317°
2026-05-06 14:13 0.07802 101.77876 33939 ft 484 kts 317°
2026-05-06 14:14 0.12630 101.73195 33939 ft 484 kts 317°
2026-05-06 14:14 0.17508 101.68464 33939 ft 484 kts 317°
2026-05-06 14:15 0.22342 101.63776 33939 ft 484 kts 317°
2026-05-06 14:15 0.27191 101.59071 33939 ft 484 kts 317°
2026-05-06 14:16 0.32007 101.54400 33939 ft 484 kts 317°
2026-05-06 14:16 0.36996 101.49895 33937 ft 483 kts 325°
2026-05-06 14:17 0.42880 101.46641 33938 ft 479 kts 340°
2026-05-06 14:17 0.49325 101.45028 33939 ft 476 kts 355°
2026-05-06 14:18 0.55908 101.45003 33941 ft 473 kts
2026-05-06 14:18 0.62491 101.45485 33939 ft 473 kts
2026-05-06 14:19 0.69046 101.45964 33934 ft 463 kts
2026-05-06 14:19 0.75453 101.46413 33938 ft 459 kts
2026-05-06 14:20 0.81838 101.46854 33936 ft 459 kts
2026-05-06 14:20 0.85038 101.47073 33708 ft 459 kts
2026-05-06 14:20 0.88239 101.47292 33454 ft 456 kts
2026-05-06 14:21 0.91397 101.47508 33203 ft 454 kts
2026-05-06 14:21 0.94544 101.47723 32952 ft 452 kts
2026-05-06 14:21 0.97685 101.47938 32700 ft 450 kts
2026-05-06 14:21 1.00846 101.48154 32447 ft 450 kts
2026-05-06 14:22 1.03963 101.48367 32197 ft 451 kts
2026-05-06 14:22 1.07118 101.48583 31944 ft 451 kts
2026-05-06 14:22 1.10259 101.48798 31617 ft 453 kts
2026-05-06 14:22 1.13401 101.49013 31052 ft 454 kts
2026-05-06 14:23 1.16563 101.49229 30329 ft 455 kts
2026-05-06 14:23 1.19721 101.49446 29530 ft 455 kts
2026-05-06 14:23 1.22903 101.49663 28848 ft 452 kts
2026-05-06 14:23 1.25990 101.49874 28361 ft 445 kts
2026-05-06 14:24 1.29094 101.50085 27854 ft 439 kts
2026-05-06 14:24 1.32121 101.50291 27352 ft 433 kts
2026-05-06 14:24 1.35104 101.50494 26851 ft 428 kts
2026-05-06 14:24 1.38067 101.50697 26346 ft 422 kts
2026-05-06 14:25 1.40986 101.50896 25847 ft 418 kts
2026-05-06 14:25 1.43870 101.51093 25398 ft 407 kts
2026-05-06 14:25 1.46650 101.51282 24891 ft 394 kts
2026-05-06 14:25 1.49385 101.51468 24486 ft 388 kts
2026-05-06 14:26 1.52069 101.51369 24132 ft 387 kts 349°
2026-05-06 14:26 1.54597 101.50494 23649 ft 386 kts 334°
2026-05-06 14:26 1.56955 101.49199 23119 ft 384 kts 330°
2026-05-06 14:26 1.59270 101.47821 22584 ft 382 kts 330°
2026-05-06 14:27 1.61538 101.46452 22080 ft 379 kts 330°
2026-05-06 14:27 1.63797 101.45129 21580 ft 376 kts 335°
2026-05-06 14:27 1.66312 101.44411 21031 ft 371 kts 356°
2026-05-06 14:27 1.68859 101.44582 20542 ft 366 kts 15°
2026-05-06 14:28 1.71168 101.45589 20038 ft 361 kts 35°
2026-05-06 14:28 1.73019 101.47285 19548 ft 358 kts 48°
2026-05-06 14:28 1.74638 101.49146 19073 ft 355 kts 50°
2026-05-06 14:28 1.76250 101.51036 18584 ft 353 kts 50°
2026-05-06 14:29 1.77843 101.52899 18351 ft 340 kts 50°
2026-05-06 14:29 1.79375 101.54680 18109 ft 332 kts 49°
2026-05-06 14:29 1.80862 101.56401 17863 ft 324 kts 49°
2026-05-06 14:29 1.82340 101.58108 17612 ft 324 kts 49°
2026-05-06 14:30 1.83820 101.59814 17361 ft 323 kts 49°
2026-05-06 14:30 1.85302 101.61520 17109 ft 322 kts 49°
2026-05-06 14:30 1.86782 101.63223 16856 ft 321 kts 49°
2026-05-06 14:30 1.88241 101.64901 16606 ft 320 kts 49°
2026-05-06 14:31 1.89710 101.66592 16353 ft 319 kts 49°
2026-05-06 14:31 1.91172 101.68273 16101 ft 318 kts 49°
2026-05-06 14:31 1.92629 101.69949 15849 ft 317 kts 49°
2026-05-06 14:31 1.94075 101.71613 15598 ft 316 kts 49°
2026-05-06 14:32 1.95521 101.73277 15346 ft 315 kts 49°
2026-05-06 14:32 1.96953 101.74923 15096 ft 314 kts 49°
2026-05-06 14:32 1.98402 101.76590 14842 ft 313 kts 49°
2026-05-06 14:32 1.99828 101.78231 14591 ft 312 kts 49°
2026-05-06 14:33 2.01248 101.79864 14341 ft 311 kts 49°
2026-05-06 14:33 2.02664 101.81493 14090 ft 310 kts 49°
2026-05-06 14:33 2.04081 101.83123 13838 ft 309 kts 49°
2026-05-06 14:33 2.05496 101.84750 13586 ft 308 kts 49°
2026-05-06 14:34 2.06910 101.86377 13333 ft 307 kts 49°
2026-05-06 14:34 2.08298 101.87974 13084 ft 306 kts 49°
2026-05-06 14:34 2.09698 101.89584 12833 ft 305 kts 49°
2026-05-06 14:34 2.11092 101.91188 12581 ft 304 kts 49°
2026-05-06 14:35 2.12497 101.92802 12327 ft 303 kts 49°
2026-05-06 14:35 2.13829 101.94437 12066 ft 302 kts 59°
2026-05-06 14:35 2.14484 101.96411 11801 ft 301 kts 85°
2026-05-06 14:35 2.14260 101.98491 11547 ft 300 kts 109°
2026-05-06 14:36 2.13309 102.00356 11306 ft 299 kts 121°
2026-05-06 14:36 2.12215 102.02113 11104 ft 298 kts 122°
2026-05-06 14:36 2.11104 102.03876 11085 ft 298 kts 122°
2026-05-06 14:36 2.09998 102.05648 11082 ft 298 kts 121°
2026-05-06 14:37 2.09067 102.07508 11065 ft 297 kts 104°
2026-05-06 14:37 2.08926 102.09550 10878 ft 292 kts 80°
2026-05-06 14:37 2.09644 102.11433 10396 ft 293 kts 54°
2026-05-06 14:37 2.11125 102.12822 9945 ft 293 kts 28°
2026-05-06 14:38 2.13036 102.13412 9543 ft 291 kts
2026-05-06 14:38 2.15034 102.13099 9133 ft 290 kts 337°
2026-05-06 14:38 2.16700 102.11955 8735 ft 289 kts 316°
2026-05-06 14:38 2.18042 102.10487 8367 ft 287 kts 311°
2026-05-06 14:39 2.19333 102.08942 7968 ft 286 kts 310°
2026-05-06 14:39 2.20603 102.07394 7583 ft 285 kts 310°
2026-05-06 14:39 2.21847 102.05871 7215 ft 283 kts 310°
2026-05-06 14:39 2.23092 102.04342 7084 ft 282 kts 310°
2026-05-06 14:40 2.24340 102.02809 7082 ft 283 kts 310°
2026-05-06 14:40 2.25595 102.01268 7081 ft 283 kts 310°
2026-05-06 14:40 2.26850 101.99728 7080 ft 283 kts 310°
2026-05-06 14:40 2.28152 101.98235 7073 ft 283 kts 319°
2026-05-06 14:41 2.29717 101.97063 6939 ft 277 kts 327°
2026-05-06 14:41 2.31355 101.95983 6493 ft 279 kts 328°
2026-05-06 14:41 2.32993 101.94923 6091 ft 278 kts 328°
2026-05-06 14:41 2.34626 101.93862 5723 ft 277 kts 328°
2026-05-06 14:42 2.36231 101.92815 5356 ft 275 kts 328°
2026-05-06 14:42 2.37830 101.91767 4989 ft 274 kts 328°
2026-05-06 14:42 2.39436 101.90713 4620 ft 272 kts 328°
2026-05-06 14:42 2.41023 101.89671 4256 ft 271 kts 328°
2026-05-06 14:43 2.42611 101.88629 3891 ft 269 kts 328°
2026-05-06 14:43 2.44167 101.87608 3533 ft 268 kts 328°
2026-05-06 14:43 2.45741 101.86565 3170 ft 267 kts 327°
2026-05-06 14:43 2.47276 101.85541 2815 ft 265 kts 327°
2026-05-06 14:44 2.48812 101.84512 2681 ft 263 kts 327°
2026-05-06 14:44 2.50304 101.83511 2643 ft 250 kts 327°
2026-05-06 14:44 2.51708 101.82567 2626 ft 236 kts 327°
2026-05-06 14:45 2.54333 101.80803 2623 ft 223 kts 327°
2026-05-06 14:45 2.55634 101.79929 2625 ft 223 kts 327°
2026-05-06 14:45 2.56920 101.79067 2627 ft 223 kts 327°
2026-05-06 14:45 2.58232 101.78187 2646 ft 223 kts 327°
2026-05-06 14:46 2.59519 101.77323 2621 ft 223 kts 327°
2026-05-06 14:46 2.60823 101.76448 2413 ft 223 kts 328°
2026-05-06 14:46 2.62121 101.75577 2114 ft 224 kts 328°
2026-05-06 14:46 2.63417 101.74708 1816 ft 224 kts 328°
2026-05-06 14:47 2.64681 101.73860 1521 ft 212 kts 328°
2026-05-06 14:47 2.65873 101.73060 1238 ft 199 kts 328°
2026-05-06 14:47 2.66998 101.72304 1052 ft 183 kts 328°
2026-05-06 14:47 2.68012 101.71624 794 ft 168 kts 328°
2026-05-06 14:48 2.68933 101.71007 543 ft 155 kts 328°
2026-05-06 14:48 2.69805 101.70422 316 ft 141 kts 329°
2026-05-06 14:48 2.70597 101.69896 180 ft 137 kts 330°
2026-05-06 14:48 2.71388 101.69379 75 ft 122 kts 327°
2026-05-06 14:49 2.71854 101.69068 75 ft 48 kts 327°
2026-05-06 14:49 2.72126 101.68887 75 ft 45 kts 326°
2026-05-06 14:49 2.72391 101.68710 75 ft 45 kts 328°
2026-05-06 14:49 2.72618 101.68631 75 ft 13 kts 352°
2026-05-06 14:50 2.72714 101.68618 75 ft 14 kts 352°
2026-05-06 14:50 2.72820 101.68604 75 ft 16 kts 352°
2026-05-06 14:50 2.72889 101.68576 75 ft 4 kts 327°
2026-05-06 14:50 2.72918 101.68557 75 ft 5 kts 327°
2026-05-06 14:51 2.72953 101.68534 75 ft 6 kts 327°
2026-05-06 14:51 2.72994 101.68507 75 ft 7 kts 327°
2026-05-06 14:51 2.73045 101.68474 75 ft 9 kts 326°
2026-05-06 14:51 2.73116 101.68426 75 ft 14 kts 326°
2026-05-06 14:52 2.73209 101.68364 75 ft 17 kts 326°
2026-05-06 14:52 2.73311 101.68295 75 ft 17 kts 326°
2026-05-06 14:52 2.73415 101.68225 75 ft 18 kts 326°
2026-05-06 14:52 2.73481 101.68182 75 ft 9 kts 321°
2026-05-06 14:53 2.73545 101.68137 75 ft 12 kts 326°
2026-05-06 14:53 2.73622 101.68089 75 ft 13 kts 343°
2026-05-06 14:53 2.73686 101.68127 75 ft 10 kts 63°
2026-05-06 14:53 2.73691 101.68201 75 ft 10 kts 63°
2026-05-06 14:54 2.73737 101.68270 75 ft 12 kts 56°
2026-05-06 14:54 2.73787 101.68345 75 ft 13 kts 56°
2026-05-06 14:54 2.73833 101.68413 75 ft 7 kts 69°
2026-05-06 14:54 2.73805 101.68448 75 ft 7 kts 147°
2026-05-06 14:55 2.73778 101.68466 75 ft 3 kts 146°
2026-05-06 14:55 2.73772 101.68470 75 ft 0 kts 146°